Powrót do katalogu

CZ-6A DEB

AktywnyPO
NORAD 68406·DEBRIS·🇨🇳 China

Wystrzelony Nov 11, 2022 z Taiyuan Satellite Launch Center

Loading…

Następne Przeloty (najbliższe 24 godziny)

TLE

ŚwieżeSource: Space-Track

Epoka: Sep 13, 2026, 08:36 UTC

1 68406U 22151AJH 26256.35855589  .00004709  00000-0  87572-3 0  9996
2 68406  99.1351  39.3390 0073600  82.8605 278.0956 14.63944497182397

Śledź CZ-6A DEB w czasie rzeczywistym z AllMySat

Download on the App Store